Weather History for KBMG - November, 2014

Change the Weather History Date:

Wednesday, November 5, 2014

  Actual Average Record
Temperature  
Mean Temperature 47 °F 48 °F  
Max Temperature 54 °F 60 °F 73 °F (2005)
Min Temperature 39 °F 37 °F 23 °F (2012)
Degree Days  
Heating Degree Days 18 17  
Month to date heating degree days 98 80  
Since 1 July heating degree days 529 499  
Cooling Degree Days 0 0  
Month to date cooling degree days 0 0  
Year to date cooling degree days 904 926  
Moisture  
Dew Point 43 °F    
Average Humidity 83    
Maximum Humidity 100    
Minimum Humidity 66    
Precipitation  
Precipitation 0.00 in 0.15 in 0.35 in (2002)
Month to date precipitation 0.40 0.75  
Year to date precipitation 40.57 40.82  
Sea Level Pressure  
Sea Level Pressure 30.17 in    
Wind  
Wind Speed 2 mph (SSW)    
Max Wind Speed 7 mph    
Max Gust Speed 9 mph    
Visibility 5 miles    
Events Fog    
T = Trace of Precipitation, MM = Missing Value Source: NWS Daily Summary

Daily Weather History Graph

Daily Weather History Graph

Search for Another Location

Airport or City:

Trip Planner

Search our weather history database for the weather conditions in past years. The results will help you decide how hot, cold, wet, or windy it might be!

Date:

Astronomy

Nov. 05, 2014 Rise Set
Actual Time 7:18 AM EST 5:41 PM EST
Civil Twilight 6:50 AM EST 6:09 PM EST
Nautical Twilight 6:18 AM EST 6:40 PM EST
Astronomical Twilight 5:47 AM EST 7:12 PM EST
Moon 5:05 PM EST (11/5) 5:43 AM EST (11/5)
Length of Visible Light 11h 18m
Length of Day
10h 22m
Waxing Gibbous, 98% of the Moon is Illuminated
Nov 5
Waxing Gibbous
Nov 6
Full
Nov 14
Last Quarter
Nov 22
New
Nov 29
First Quarter

Hourly Weather History & Observations

Time (EST) Temp. Windchill Dew Point Humidity Pressure Visibility Wind Dir Wind Speed Gust Speed Precip Events Conditions
12:53 AM 46.9 °F - 46.0 °F 97% 30.19 in 5.0 mi NW 4.6 mph - N/A   Scattered Clouds
1:37 AM 46.0 °F - 45.0 °F 96% 30.17 in 4.0 mi Calm Calm - N/A   Mostly Cloudy
1:53 AM 46.0 °F 44.8 °F 45.0 °F 96% 30.19 in 4.0 mi NW 3.5 mph - N/A   Overcast
2:53 AM 46.0 °F 43.9 °F 45.0 °F 96% 30.20 in 5.0 mi WNW 4.6 mph - N/A   Overcast
3:16 AM 46.0 °F - 45.0 °F 96% 30.19 in 5.0 mi Calm Calm - N/A   Overcast
3:53 AM 46.0 °F 44.8 °F 44.1 °F 93% 30.20 in 5.0 mi WNW 3.5 mph - N/A   Mostly Cloudy
4:09 AM 45.0 °F - 44.1 °F 97% 30.19 in 4.0 mi Calm Calm - N/A   Scattered Clouds
4:28 AM 45.0 °F - 44.1 °F 97% 30.20 in 4.0 mi Calm Calm - N/A   Mostly Cloudy
4:53 AM 45.0 °F 43.5 °F 43.0 °F 93% 30.21 in 4.0 mi WNW 3.5 mph - N/A   Scattered Clouds
5:25 AM 44.1 °F - 43.0 °F 96% 30.21 in 2.5 mi Calm Calm - N/A   Scattered Clouds
5:36 AM 43.0 °F - 42.1 °F 97% 30.21 in 1.0 mi Calm Calm - N/A   Mist
5:43 AM 42.1 °F - 42.1 °F 100% 30.21 in 0.5 mi Calm Calm - N/A Fog Fog
5:53 AM 42.1 °F - 42.1 °F 100% 30.22 in 0.2 mi Calm Calm - N/A Fog Fog
6:53 AM 42.1 °F - 42.1 °F 100% 30.21 in 0.2 mi Calm Calm - N/A Fog Fog
7:00 AM 42.1 °F - 42.1 °F 100% 30.21 in 0.5 mi Calm Calm - N/A Fog Fog
7:09 AM 42.1 °F - 42.1 °F 100% 30.21 in 0.2 mi Calm Calm - N/A Fog Fog
7:53 AM 43.0 °F - 43.0 °F 100% 30.22 in 0.2 mi Calm Calm - N/A Fog Fog
8:53 AM 44.1 °F - 44.1 °F 100% 30.23 in 0.2 mi Calm Calm - N/A Fog Fog
9:14 AM 45.0 °F - 45.0 °F 100% 30.22 in 0.5 mi Calm Calm - N/A Fog Fog
9:24 AM 44.1 °F - 44.1 °F 100% 30.22 in 2.0 mi Calm Calm - N/A   Overcast
9:45 AM 45.0 °F - 45.0 °F 100% 30.23 in 3.0 mi Calm Calm - N/A   Overcast
9:53 AM 45.0 °F - 45.0 °F 100% 30.24 in 4.0 mi Calm Calm - N/A   Mostly Cloudy
10:23 AM 46.0 °F - 45.0 °F 96% 30.23 in 4.0 mi Calm Calm - N/A   Overcast
10:53 AM 46.9 °F - 46.0 °F 97% 30.23 in 5.0 mi SE 3.5 mph - N/A   Mostly Cloudy
11:15 AM 48.0 °F - 46.0 °F 93% 30.22 in 5.0 mi SE 4.6 mph - N/A   Scattered Clouds
11:53 AM 48.9 °F - 45.0 °F 86% 30.22 in 6.0 mi ESE 4.6 mph - N/A   Clear
12:53 PM 51.1 °F - 44.1 °F 77% 30.19 in 10.0 mi SE 3.5 mph - N/A   Clear
1:53 PM 53.1 °F - 44.1 °F 71% 30.17 in 10.0 mi Calm Calm - N/A   Clear
2:53 PM 53.1 °F - 43.0 °F 69% 30.16 in 10.0 mi Calm Calm - N/A   Clear
3:53 PM 53.1 °F - 44.1 °F 71% 30.14 in 10.0 mi SSE 5.8 mph - N/A   Clear
4:53 PM 52.0 °F - 44.1 °F 74% 30.14 in 10.0 mi Calm Calm - N/A   Clear
5:53 PM 46.9 °F - 44.1 °F 90% 30.13 in 10.0 mi Calm Calm - N/A   Clear
6:53 PM 43.0 °F 40.3 °F 42.1 °F 97% 30.12 in 10.0 mi SSE 4.6 mph - N/A   Clear
7:53 PM 43.0 °F 41.3 °F 41.0 °F 93% 30.10 in 10.0 mi North 3.5 mph - N/A   Clear
8:53 PM 39.0 °F - 37.9 °F 96% 30.09 in 4.0 mi Calm Calm - N/A   Scattered Clouds
9:02 PM 41.0 °F - 39.9 °F 96% 30.08 in 6.0 mi Calm Calm - N/A   Mostly Cloudy
9:53 PM 44.1 °F - 43.0 °F 96% 30.07 in 10.0 mi Calm Calm - N/A   Overcast
10:53 PM 46.9 °F - 44.1 °F 90% 30.06 in 10.0 mi Calm Calm - N/A   Overcast
11:04 PM 48.0 °F - 44.1 °F 86% 30.05 in 10.0 mi SSW 3.5 mph - N/A   Overcast
11:15 PM 48.0 °F - 43.0 °F 83% 30.04 in 10.0 mi SSW 4.6 mph - N/A   Mostly Cloudy
11:37 PM 45.0 °F 41.8 °F 42.1 °F 90% 30.02 in 10.0 mi SSE 5.8 mph - N/A   Scattered Clouds
11:53 PM 43.0 °F 39.5 °F 41.0 °F 93% 30.03 in 10.0 mi SW 5.8 mph - N/A   Scattered Clouds